Location: Arbon
(43.0005°N, 0.7472°E)
Time: 00:22:15
(UTC+00:00)

S-56A Canister/Altair - Pass Details

Date: 05 December 2020
Orbit: 633 x 2499 km, 38.9° (Epoch: 19 January)

Event Time Altitude Azimuth Distance (km) Brightness Sun altitude
Rises 22:10:45 0° 281° (W) 5,209 12.1 -61.3°
Reaches altitude 10° 22:14:51 10° 275° (W) 3,905 11.3 -61.8°
Enters shadow 22:15:15 11° 274° (W) 3,779 11.2 -61.9°
